Orbital Elements at Epoch 2459200.5 (2020-Dec-17.0) TDB
Reference: JPL 16 (heliocentric ecliptic J2000)
Element | Value | Uncertainty (1-sigma) | Units |
e | .2215052900813339 | 6.7292e-08 | |
a | 2.632617256277421 | 1.8145e-08 | au |
q | 2.049478607252565 | 1.7877e-07 | au |
i | 4.560443048980208 | 5.5377e-06 | deg |
node | 119.4924446354731 | 9.3489e-05 | deg |
peri | 262.0018853659492 | 9.4559e-05 | deg |
M | 287.5278380492554 | 1.5977e-05 | deg |
tp | 2459514.586108550432 (2021-Oct-27.08610855) | 7.0272e-05 | TDB |
period | 1560.199061744613 4.27 | 1.6131e-05 4.416e-08 | d yr |
n | .2307397875226564 | 2.3856e-09 | deg/d |
Q | 3.215755905302276 | 2.2165e-08 | au |
|
| | Orbit Determination Parameters
Additional Information
|